Regional Weather Roundup
Issued by NWS

Home | Current Version | Previous Version | Graphics & Text | Print | Product List | Glossary On
Versions: 1 2 3 4 5 6 7 8 9 10 11 12 13 14 15 16 17 18 19 20 21 22 23 24 25 26 27 28 29 30 31 32 33 34 35 36 37 38 39 40 41 42 43 44 45 46 47 48 49 50
000
ASUS43 KMKX 212321
RWRWI

WISCONSIN REGIONAL WEATHER ROUNDUP
NATIONAL WEATHER SERVICE MILWAUKEE/SULLIVAN WI
600 PM CDT MON JUL 21 2014

NOTE: "FAIR" INDICATES FEW OR NO CLOUDS BELOW 12,000 FEET WITH NO
SIGNIFICANT WEATHER AND/OR OBSTRUCTIONS TO VISIBILITY.

WIZ001-002-006>008-014>016-023>028-220000-
NORTHWEST WISCONSIN

CITY           SKY/WX    TMP DP  RH WIND       PRES   REMARKS
SUPERIOR ARPT  MOSUNNY   89  75  61 S8        29.83F HX  99
ASHLAND        SUNNY     88  72  58 S7        29.89S HX  94
HAYWARD        MOSUNNY   87  72  60 S13       29.92S HX  93
SIREN          PTSUNNY   87  73  61 S14       29.88F HX  94
RICE LAKE      MOSUNNY   87  72  61 SE15      29.92F HX  92
LADYSMITH      PTSUNNY   84  73  67 S9        29.97S HX  90
EAU CLAIRE     MOSUNNY   87  72  60 SE14      29.91F HX  93
MENOMONIE      CLEAR     87  72  60 SE10      29.91S HX  94
NEW RICHMOND   MOSUNNY   86  73  64 S10       29.90S HX  93
OSCEOLA        MOSUNNY   87  74  67 S9        29.91R HX  95
$$

WIZ003>005-009-010-017-018-220000-
NORTH CENTRAL WISCONSIN

CITY           SKY/WX    TMP DP  RH WIND       PRES   REMARKS
WOODRUFF       PTSUNNY   83  71  65 S9        29.99R HX  88
RHINELANDER    PTSUNNY   82  71  69 SW9       30.00F HX  86
EAGLE RIVER    CLOUDY    81  67  63 S6        30.00R HX  83
LAND O LAKES   PTSUNNY   85  68  55 S9G18     30.00S HX  88
PHILLIPS       CLOUDY    83  73  70 S10       29.96F HX  89
TOMAHAWK       CLOUDY    81  71  71 CALM      30.00S HX  85
MEDFORD        CLOUDY    81  72  73 S9        29.99S HX  85
MERRILL        CLOUDY    83  71  69 S8        29.99S HX  87
$$

WIZ029-030-035-036-043>047-220000-
CENTRAL WISCONSIN

CITY           SKY/WX    TMP DP  RH WIND       PRES   REMARKS
WAUSAU         CLOUDY    83  69  62 S12       29.98S HX  86
MOSINEE        MOSUNNY   82  72  69 SE8       30.00F HX  87
MARSHFIELD     CLOUDY    83  71  67 S9        29.98F HX  87
STEVENS POINT  PTSUNNY   83  67  59 S10       29.99F HX  86
WAUPACA        SUNNY     89  66  46 S10       29.99S HX  91
WAUTOMA        SUNNY     88  68  51 S7        30.00S HX  91
WISC RAPIDS    SUNNY     86  67  52 SW13      29.99F HX  89
CAMP DOUGLAS   PTSUNNY   84  70  61 S8G18     29.98F HX  88
$$

WIZ011>013-019>022-031-037>040-048>050-220000-
NORTHEAST WISCONSIN

CITY           SKY/WX    TMP DP  RH WIND       PRES   REMARKS
ANTIGO         CLOUDY    80  72  76 S8        30.02S HX  83
STURGEON BAY   SUNNY     73  61  64 S16G22    30.02F
GREEN BAY      SUNNY     85  66  53 S13       30.00F HX  87
MANITOWOC      SUNNY     76  63  64 S16       30.03S
APPLETON       SUNNY     84  64  51 S12G17    30.02S HX  86
CLINTONVILLE   SUNNY     86  64  48 S13       29.99S HX  87
OSHKOSH        SUNNY     84  67  56 SW12      30.01S HX  86
$$

WIZ032>034-041-042-053>061-220000-
SOUTHWEST WISCONSIN

CITY           SKY/WX    TMP DP  RH WIND       PRES   REMARKS
LA CROSSE      SUNNY     88  69  53 S16       29.92F HX  92
SPARTA         PTSUNNY   86  66  51 SE12G17   29.96F HX  88
VIROQUA        FAIR      83  67  59 S12G17    29.98F HX  86
BOSCOBEL       PTSUNNY   87  68  52 VRB3      29.97F HX  90
PRAIRIE DU CHI SUNNY     85  66  52 SE8G16    29.95F HX  88
PLATTEVILLE    FAIR      83  67  58 SE10G16   30.01F HX  86
$$

WIZ056-057-062-063-064-067-068-220000-
SOUTH CENTRAL WISCONSIN

CITY           SKY/WX    TMP DP  RH WIND       PRES   REMARKS
BARABOO/DELLS  SUNNY     86  64  47 S13       30.00F HX  87
LONE ROCK      MOSUNNY   88  69  53 S9        29.99S HX  92
WATERTOWN      SUNNY     83  69  62 S8        30.02S HX  86
MADISON        MOSUNNY   86  67  52 S15       30.01F HX  89
MIDDLETON      FAIR      85  65  49 S10       30.02S HX  87
MONROE         MOSUNNY   82  68  61 S13G18    30.04S HX  85
JANESVILLE     MOSUNNY   86  64  48 S13       30.03S HX  87
$$

WIZ051-052-058>065-066-070>072-220000-
SOUTHEAST WISCONSIN

CITY           SKY/WX    TMP DP  RH WIND       PRES   REMARKS
MILWAUKEE      MOSUNNY   80  63  55 S14       30.04S HX  81
WAUKESHA       PTSUNNY   81  64  57 S7        30.05F HX  82
MILWAUKEE/TIMM SUNNY     84  63  48 S9        30.04S HX  85
RACINE         SUNNY     79  62  56 S13       30.07S HX  80
BURLINGTON     SUNNY     81  67  62 SW8       30.05S HX  83
KENOSHA        SUNNY     81  65  58 SE12      30.05F HX  83
FOND DU LAC    MOSUNNY   84  66  54 SW13      30.01F HX  86
SHEBOYGAN      SUNNY     78  64  61 S12       30.04S HX  80
WEST BEND      SUNNY     82  63  51 S9        30.03F HX  83
JUNEAU         SUNNY     83  51  32 S9        30.04S HX  81
$$

LSZ147-162-220000-
LAKE SUPERIOR

STATION/POSITION TIME  TEMP    WIND        PRES    WAVE
                       AIR SEA DIR/SP/G            HT/PER
                 (UTC) (F)     (DEG/KT/KT) (MB)    (FT/S)
W MID LAKE BUOY  2250   54 45  120/  4/  4 1012.0F   0
PORT WING        2200   90     190/  8/ 12 1011.2F
SAXON HARBOR     2200          200/  3/  7 1012.2F
$$

LMZ867-665-643>646-220000-
LAKE MICHIGAN

STATION/POSITION TIME  TEMP    WIND        PRES    WAVE
                       AIR SEA DIR/SP/G            HT/PER
                 (UTC) (F)     (DEG/KT/KT) (MB)    (FT/S)
N MID LAKE BUOY  2150   64 58  210/ 14/ 16 1016.1F   3/ 4
NORTHPORT PIER   2200   74     160/  7/ 14 1016.3S
KEWAUNEE LAKESHO 2300   60     180/ 12/ 13 1017.8S
SHEBOYGAN LAKESH 2300   71     180/ 18/ 18 1017.0F
PORT WASHINGTON  2240   70     190/  7/ 10 1017.9S
ATWATER BUOY     2300   66     170/ 16     1018.2S
MILWAUKEE LAKESH 2300   65     150/ 15/ 16   N/A
S MID LAKE BUOY  2250   72 70  150/  6/  8 1018.0F   0
KENOSHA   LAKESH 2300   73     180/  6/  9   N/A
$$

TC  - TEMPERATURE IN CELSIUS
VSB - VISIBILITY IN STATUTE MILES
WCI - WIND CHILL INDEX
HX  - HEAT INDEX




USA.gov is the U.S. government's official web portal to all federal, state and local government web resources and services.